^^
Datos históricos de la estación: Murcia-Puente Tocinos
Diario Informe para Marzo 29, 2019 Unidades:  Inglés    Métrico   Ambas
Diario Semanal Mensual Anual Configurable
  Máximo: Mínimo: Media:
Temperatura: 62.2 °F 48.6 °F 55 °F
Punto de rocio: 46.6 °F 38.7 °F 43.7 °F
Humedad: 81% 50% 66%
Velocidad viento: 12.5mph 0mph 5.2mph
Racha viento: 21.9mph - -
Viento- - SE
Presión: 30.3 in 30.2 in -
Precipitación: 0 in    
Historical Graphs
 
 
Tabla de datos para Marzo 29, 2019
Hora Temperatura Punto de rocio Presión Viento Velocidad viento Racha viento Humedad Intensidad lluvia(por hora) Nubes
00:00 52.2 °F 45.9 °F 30.3 in NW 2 mph 4 mph 79% 0 in CLR
00:05 52 °F 46 °F 30.3 in NW 1.8 mph 2.3 mph 80% 0 in CLR
00:10 52 °F 46 °F 30.3 in NW 1.4 mph   80% 0 in CLR
00:15 52 °F 46 °F 30.3 in NW 1.4 mph   80% 0 in CLR
00:20 52.2 °F 46.2 °F 30.3 in Calm   1.2 mph 80% 0 in CLR
00:25 52.2 °F 46.2 °F 30.3 in Calm   2.3 mph 80% 0 in CLR
00:30 52 °F 46 °F 30.3 in Calm   1.2 mph 80% 0 in CLR
00:35 52 °F 46 °F 30.3 in Calm   2.3 mph 80% 0 in CLR
00:40 51.8 °F 45.9 °F 30.3 in NW 1.4 mph   80% 0 in CLR
00:45 51.8 °F 46.2 °F 30.3 in NW 1.4 mph   81% 0 in CLR
00:50 51.8 °F 46.2 °F 30.3 in Calm     81% 0 in CLR
00:55 51.8 °F 46.2 °F 30.3 in Calm   2 mph 81% 0 in CLR
01:00 51.8 °F 46.2 °F 30.3 in Calm   2 mph 81% 0 in CLR
01:05 51.8 °F 46.2 °F 30.3 in Calm     81% 0 in CLR
01:10 51.8 °F 46.2 °F 30.3 in Calm     81% 0 in CLR
01:15 51.8 °F 46.2 °F 30.3 in Calm     81% 0 in CLR
01:20 51.8 °F 45.9 °F 30.3 in Calm   3.5 mph 80% 0 in CLR
01:25 51.6 °F 45.7 °F 30.3 in Calm   4.6 mph 80% 0 in CLR
01:30 51.6 °F 45.3 °F 30.3 in South 2.4 mph 3.6 mph 79% 0 in CLR
01:35 51.4 °F 45.1 °F 30.3 in SSE 2.4 mph 2.9 mph 79% 0 in CLR
01:40 51.4 °F 45.1 °F 30.3 in SSE 2 mph   79% 0 in CLR
01:45 51.4 °F 45.5 °F 30.3 in SSE 2 mph   80% 0 in CLR
01:50 51.4 °F 45.5 °F 30.3 in Calm     80% 0 in CLR
01:55 51.4 °F 45.1 °F 30.3 in Calm     79% 0 in CLR
02:00 51.4 °F 45.1 °F 30.3 in Calm   4 mph 79% 0 in CLR
02:05 51.4 °F 45.1 °F 30.3 in Calm   4.6 mph 79% 0 in CLR
02:10 51.4 °F 45.1 °F 30.3 in South 2 mph 3.5 mph 79% 0 in CLR
02:15 51.4 °F 44.8 °F 30.3 in SSW 2 mph 5.8 mph 78% 0 in CLR
02:20 51.3 °F 45 °F 30.3 in SSW 3.1 mph 5.8 mph 79% 0 in CLR
02:25 51.3 °F 45 °F 30.3 in SSW 3.1 mph 5.8 mph 79% 0 in CLR
02:30 51.3 °F 45 °F 30.3 in SSW 3.6 mph 4.6 mph 79% 0 in CLR
02:35 51.3 °F 45 °F 30.3 in SSW 3.6 mph 5.8 mph 79% 0 in CLR
02:40 51.3 °F 45 °F 30.3 in SSW 4 mph 5.8 mph 79% 0 in CLR
02:45 51.3 °F 45 °F 30.3 in SSW 4 mph 5.8 mph 79% 0 in CLR
02:50 51.3 °F 44.6 °F 30.3 in SSW 4.3 mph 3.5 mph 78% 0 in CLR
02:55 51.3 °F 44.6 °F 30.3 in SE 4.3 mph 4.6 mph 78% 0 in CLR
03:00 51.3 °F 44.2 °F 30.3 in South 2 mph 8 mph 77% 0 in CLR
03:05 50.9 °F 44.2 °F 30.3 in South 2 mph 4.7 mph 78% 0 in CLR
03:10 50.7 °F 44.1 °F 30.3 in SW 4.7 mph 5.8 mph 78% 0 in CLR
03:15 50.7 °F 44.1 °F 30.3 in SSW 4.7 mph 8.1 mph 78% 0 in CLR
03:20 50.5 °F 43.9 °F 30.3 in West 4.3 mph 3.6 mph 78% 0 in CLR
03:25 50.5 °F 43.9 °F 30.3 in SW 4.3 mph 6.9 mph 78% 0 in CLR
03:30 50.7 °F 44.1 °F 30.3 in SW 3.6 mph 8.1 mph 78% 0 in CLR
03:35 50.7 °F 44.4 °F 30.3 in WSW 3.6 mph 4.6 mph 79% 0 in CLR
03:40 50.7 °F 44.1 °F 30.3 in SSW 4.3 mph 5.8 mph 78% 0 in CLR
03:45 50.7 °F 44.1 °F 30.3 in South 4.3 mph 6.9 mph 78% 0 in CLR
03:50 50.7 °F 44.1 °F 30.3 in SSW 3.6 mph 4.6 mph 78% 0 in CLR
03:55 50.7 °F 44.1 °F 30.3 in SW 3.6 mph 4.6 mph 78% 0 in CLR
04:00 50.9 °F 44.2 °F 30.3 in SW 2 mph 5 mph 78% 0 in CLR
04:05 50.9 °F 44.2 °F 30.3 in SW 2.4 mph 3.5 mph 78% 0 in CLR
04:10 50.9 °F 44.2 °F 30.3 in SW 2.4 mph 2.3 mph 78% 0 in CLR
04:15 51.1 °F 44.4 °F 30.3 in SSE 2.4 mph 3.1 mph 78% 0 in CLR
04:20 50.9 °F 43.9 °F 30.3 in SSW 2.4 mph 6.9 mph 77% 0 in CLR
04:25 50.7 °F 44.1 °F 30.3 in SSW 2.4 mph 5.8 mph 78% 0 in CLR
04:30 50.7 °F 43.9 °F 30.3 in SSW 3.1 mph 5.8 mph 77% 0 in CLR
04:35 50.7 °F 44.1 °F 30.3 in SSW 3.1 mph 5.8 mph 78% 0 in CLR
04:40 50.5 °F 43.5 °F 30.3 in SSW 4.3 mph 5.8 mph 77% 0 in CLR
04:45 50.5 °F 43.5 °F 30.3 in SW 4.3 mph 4.6 mph 77% 0 in CLR
04:50 50.5 °F 43.5 °F 30.3 in WSW 3.6 mph 3.5 mph 77% 0 in CLR
04:55 50.5 °F 43.5 °F 30.3 in WSW 3.6 mph 2.3 mph 77% 0 in CLR
05:00 50.5 °F 43.5 °F 30.3 in WSW 2 mph 3 mph 77% 0 in CLR
05:05 50.5 °F 43.3 °F 30.3 in WSW 1.8 mph 4.6 mph 76% 0 in CLR
05:10 50.4 °F 43.2 °F 30.3 in WSW 2.4 mph 3.5 mph 76% 0 in CLR
05:15 50.4 °F 43.2 °F 30.3 in South 2.4 mph 4.6 mph 76% 0 in CLR
05:20 50.2 °F 43 °F 30.3 in SSW 3.1 mph 5.8 mph 76% 0 in CLR
05:25 50 °F 42.4 °F 30.3 in SSW 3.1 mph 6.4 mph 75% 0 in CLR
05:30 49.8 °F 42.3 °F 30.3 in South 4.3 mph 6.9 mph 75% 0 in CLR
05:35 49.6 °F 42.1 °F 30.3 in South 4.3 mph 6.9 mph 75% 0 in CLR
05:40 49.5 °F 41.5 °F 30.3 in South 4.7 mph 4.6 mph 74% 0 in CLR
05:45 49.3 °F 41.4 °F 30.3 in SSW 4.7 mph 6.9 mph 74% 0 in CLR
05:50 49.3 °F 41.4 °F 30.3 in South 4 mph 4.6 mph 74% 0 in CLR
05:55 49.1 °F 41.2 °F 30.3 in South 4 mph 4.6 mph 74% 0 in CLR
06:00 49.1 °F 41.5 °F 30.3 in South 3 mph 5 mph 75% 0 in CLR
06:05 48.9 °F 41.4 °F 30.3 in South 3.1 mph 9.2 mph 75% 0 in CLR
06:10 48.9 °F 41.4 °F 30.3 in SSW 4.7 mph 4.7 mph 75% 0 in CLR
06:15 48.9 °F 41.4 °F 30.3 in South 4.7 mph 6.9 mph 75% 0 in CLR
06:20 48.7 °F 41.2 °F 30.3 in SSW 4.7 mph 6.9 mph 75% 0 in CLR
06:25 48.7 °F 41.2 °F 30.3 in SSE 4.7 mph 8.1 mph 75% 0 in CLR
06:30 48.6 °F 41 °F 30.3 in SSW 5.2 mph 5.8 mph 75% 0 in CLR
06:35 48.6 °F 41 °F 30.3 in SSW 5.2 mph 5.8 mph 75% 0 in CLR
06:40 48.6 °F 41 °F 30.3 in South 4.3 mph 5.8 mph 75% 0 in CLR
06:45 48.6 °F 40.6 °F 30.3 in SSW 4.3 mph 6.9 mph 74% 0 in CLR
06:50 48.6 °F 40.3 °F 30.3 in SW 4.7 mph 6.9 mph 73% 0 in CLR
06:55 48.7 °F 40.5 °F 30.3 in SSW 4.7 mph 5.8 mph 73% 0 in CLR
07:00 48.7 °F 40.5 °F 30.3 in SSW 5 mph 7 mph 73% 0 in CLR
07:05 48.9 °F 40.6 °F 30.3 in SW 4.3 mph 8.1 mph 73% 0 in CLR
07:10 48.9 °F 40.3 °F 30.3 in SW 5.2 mph 8.1 mph 72% 0 in CLR
07:15 48.9 °F 40.3 °F 30.3 in SW 5.2 mph 5.8 mph 72% 0 in CLR
07:20 48.9 °F 40.3 °F 30.3 in SW 4 mph 8.1 mph 72% 0 in CLR
07:25 48.9 °F 40.3 °F 30.3 in South 4 mph 4.6 mph 72% 0 in CLR
07:30 49.1 °F 40.5 °F 30.3 in SW 4 mph 5.8 mph 72% 0 in CLR
07:35 49.3 °F 40.6 °F 30.3 in SW 4 mph 5.2 mph 72% 0 in CLR
07:40 49.3 °F 40.3 °F 30.3 in SW 2.9 mph 4.6 mph 71% 0 in CLR
07:45 49.5 °F 40.5 °F 30.3 in WSW 2.9 mph 4.6 mph 71% 0 in CLR
07:50 49.5 °F 40.1 °F 30.3 in SSW 3.1 mph 5.8 mph 70% 0 in CLR
07:55 49.6 °F 39.6 °F 30.3 in SW 3.1 mph 5.2 mph 68% 0 in CLR
08:00 49.6 °F 39 °F 30.3 in WSW 3 mph 8 mph 67% 0 in CLR
08:05 49.6 °F 38.7 °F 30.3 in WSW 3.6 mph 5.8 mph 66% 0 in CLR
08:10 49.8 °F 38.8 °F 30.3 in WSW 4.7 mph 6.9 mph 66% 0 in CLR
08:15 49.8 °F 38.8 °F 30.3 in SW 4.7 mph 8.1 mph 66% 0 in CLR
08:20 50.2 °F 39.4 °F 30.3 in SW 5.4 mph 6.9 mph 66% 0 in CLR
08:25 50.4 °F 40.3 °F 30.3 in WSW 5.4 mph 5.8 mph 68% 0 in CLR
08:30 50.4 °F 40.6 °F 30.3 in SW 4 mph 5.8 mph 69% 0 in CLR
08:35 50.5 °F 40.6 °F 30.3 in SW 4 mph 4.6 mph 69% 0 in CLR
08:40 50.9 °F 40.6 °F 30.3 in SW 3.1 mph 4.7 mph 68% 0 in CLR
08:45 51.1 °F 40.8 °F 30.3 in SSW 3.1 mph 6.9 mph 68% 0 in CLR
08:50 51.1 °F 40.8 °F 30.3 in SSW 4.3 mph 6.9 mph 68% 0 in CLR
08:55 51.1 °F 40.8 °F 30.3 in WSW 4.3 mph 6.9 mph 68% 0 in CLR
09:00 51.3 °F 40.6 °F 30.3 in SSW 5 mph 7 mph 67% 0 in CLR
09:05 51.3 °F 40.6 °F 30.3 in SSW 4 mph 5.8 mph 67% 0 in CLR
09:10 51.3 °F 40.6 °F 30.3 in SW 4.3 mph 5.8 mph 67% 0 in CLR
09:15 51.4 °F 40.8 °F 30.3 in SSW 4.3 mph 6.9 mph 67% 0 in CLR
09:20 51.6 °F 41 °F 30.3 in South 4.3 mph 8.1 mph 67% 0 in CLR
09:25 52 °F 41 °F 30.3 in South 4.3 mph 5.8 mph 66% 0 in CLR
09:30 52.2 °F 40.6 °F 30.3 in South 5.4 mph 8.1 mph 65% 0 in CLR
09:35 52 °F 41 °F 30.3 in SSW 5.4 mph 10.4 mph 66% 0 in CLR
09:40 52 °F 41 °F 30.3 in SSE 6.4 mph 6.9 mph 66% 0 in CLR
09:45 52.2 °F 41.2 °F 30.3 in SSW 6.4 mph 8.7 mph 66% 0 in CLR
09:50 52.3 °F 40.8 °F 30.3 in SW 5.9 mph 9.2 mph 65% 0 in CLR
09:55 52.3 °F 40.5 °F 30.3 in SSW 5.9 mph 8.1 mph 64% 0 in CLR
10:00 52.5 °F 40.6 °F 30.3 in SSW 7 mph 10 mph 64% 0 in CLR
10:05 52.7 °F 40.5 °F 30.3 in WSW 6.4 mph 6.9 mph 63% 0 in CLR
10:10 53.2 °F 40.5 °F 30.3 in SSW 5.2 mph 6.9 mph 62% 0 in CLR
10:15 53.8 °F 40.6 °F 30.3 in WSW 5.2 mph 5.8 mph 61% 0 in CLR
10:20 54.1 °F 41 °F 30.3 in WSW 4.3 mph 4.6 mph 61% 0 in CLR
10:25 55 °F 41 °F 30.3 in WNW 4.3 mph 4.6 mph 59% 0 in CLR
10:30 55.6 °F 41 °F 30.3 in SW 2.9 mph 4.6 mph 58% 0 in CLR
10:35 56.1 °F 42.1 °F 30.3 in SSW 2.9 mph 3.5 mph 59% 0 in CLR
10:40 56.8 °F 42.6 °F 30.3 in NW 2 mph 4.6 mph 59% 0 in CLR
10:45 57.6 °F 44.2 °F 30.3 in ENE 2 mph 2.9 mph 61% 0 in CLR
10:50 57.9 °F 43.7 °F 30.3 in West 2.4 mph 5.8 mph 59% 0 in CLR
10:55 57.7 °F 44.4 °F 30.3 in NE 2.4 mph 10.4 mph 61% 0 in CLR
11:00 57.7 °F 44.8 °F 30.3 in NNE 5 mph 12 mph 62% 0 in CLR
11:05 57.4 °F 44.4 °F 30.3 in North 5.2 mph 5.8 mph 62% 0 in CLR
11:10 57.4 °F 45 °F 30.3 in NNE 5.9 mph 10.4 mph 63% 0 in CLR
11:15 57.9 °F 45.3 °F 30.3 in North 5.9 mph 8.7 mph 63% 0 in CLR
11:20 57.9 °F 45.3 °F 30.3 in NE 5.2 mph 10.4 mph 63% 0 in CLR
11:25 58.1 °F 45.7 °F 30.3 in ENE 5.2 mph 10.4 mph 63% 0 in CLR
11:30 58.5 °F 45.9 °F 30.3 in East 5.4 mph 9.2 mph 63% 0 in CLR
11:35 58.5 °F 45.9 °F 30.3 in East 5.4 mph 10.4 mph 63% 0 in CLR
11:40 58.3 °F 45.7 °F 30.3 in NNE 6.4 mph 10.4 mph 63% 0 in CLR
11:45 58.5 °F 46.2 °F 30.3 in NNE 6.4 mph 10 mph 64% 0 in CLR
11:50 58.5 °F 45.9 °F 30.3 in NE 6.4 mph 14 mph 63% 0 in CLR
11:55 58.6 °F 46 °F 30.3 in NE 6.4 mph 14.7 mph 63% 0 in CLR
12:00 58.5 °F 45.9 °F 30.3 in NE 8 mph 15 mph 63% 0 in CLR
12:05 58.5 °F 45.9 °F 30.3 in NE 7.6 mph 9.2 mph 63% 0 in CLR
12:10 58.6 °F 46 °F 30.3 in ENE 5.9 mph 10.4 mph 63% 0 in CLR
12:15 59.2 °F 46.2 °F 30.3 in NE 5.9 mph 18.1 mph 62% 0 in CLR
12:20 59.2 °F 45.7 °F 30.3 in NNE 10 mph 15 mph 61% 0 in CLR
12:25 59.5 °F 45.7 °F 30.3 in NE 10 mph 18.4 mph 60% 0 in CLR
12:30 59.7 °F 45.9 °F 30.3 in NE 10.7 mph 17.8 mph 60% 0 in CLR
12:35 60.1 °F 45.7 °F 30.3 in NE 10.7 mph 18.4 mph 59% 0 in CLR
12:40 60.1 °F 46.6 °F 30.3 in NE 11.8 mph 16.3 mph 61% 0 in CLR
12:45 60.1 °F 46 °F 30.3 in NE 11.8 mph 18.1 mph 60% 0 in CLR
12:50 59.9 °F 46 °F 30.3 in North 11.8 mph 17.3 mph 60% 0 in CLR
12:55 59.9 °F 46 °F 30.3 in NE 11.8 mph 13 mph 60% 0 in CLR
13:00 60.1 °F 45.3 °F 30.3 in NE 10 mph 19 mph 58% 0 in CLR
13:05 61 °F 44.8 °F 30.3 in East 10.2 mph 17.3 mph 55% 0 in CLR
13:10 61.3 °F 44.4 °F 30.3 in ENE 9.7 mph 18.4 mph 54% 0 in CLR
13:15 61.5 °F 44.8 °F 30.3 in NE 9.7 mph 18.4 mph 54% 0 in CLR
13:20 61.9 °F 44.1 °F 30.3 in NE 9.7 mph 18.4 mph 52% 0 in CLR
13:25 61.2 °F 45 °F 30.3 in NE 9.7 mph 20.7 mph 55% 0 in CLR
13:30 61 °F 44.8 °F 30.3 in NE 12.5 mph 18.4 mph 55% 0 in CLR
13:35 61.3 °F 44.4 °F 30.2 in NNE 12.5 mph 15 mph 54% 0 in CLR
13:40 61.7 °F 43.9 °F 30.2 in WNW 11.2 mph 12.7 mph 52% 0 in CLR
13:45 61.9 °F 43.5 °F 30.2 in NE 11.2 mph 21.9 mph 51% 0 in CLR
13:50 61.9 °F 45 °F 30.2 in East 11.8 mph 20.7 mph 54% 0 in CLR
13:55 61.9 °F 44.1 °F 30.2 in ENE 11.8 mph 19.6 mph 52% 0 in CLR
14:00 61.5 °F 43.2 °F 30.2 in NE 12 mph 19 mph 51% 0 in CLR
14:05 61.7 °F 43.9 °F 30.2 in ENE 11.8 mph 18.4 mph 52% 0 in CLR
14:10 61.5 °F 44.2 °F 30.2 in NE 10.2 mph 11.5 mph 53% 0 in CLR
14:15 61.7 °F 43.9 °F 30.2 in NE 10.2 mph 16.1 mph 52% 0 in CLR
14:20 61.5 °F 44.2 °F 30.2 in NE 9.2 mph 11.5 mph 53% 0 in CLR
14:25 62.1 °F 44.8 °F 30.2 in ENE 9.2 mph 20.7 mph 53% 0 in CLR
14:30 61.5 °F 43.7 °F 30.2 in NE 11.2 mph 15 mph 52% 0 in CLR
14:35 61.9 °F 44.6 °F 30.2 in East 11.2 mph 13.5 mph 53% 0 in CLR
14:40 62.1 °F 44.2 °F 30.2 in NNE 9.7 mph 19.6 mph 52% 0 in CLR
14:45 62.1 °F 43.7 °F 30.2 in NE 9.7 mph 15 mph 51% 0 in CLR
14:50 62.1 °F 44.8 °F 30.2 in ENE 10.7 mph 17.3 mph 53% 0 in CLR
14:55 62.2 °F 45 °F 30.2 in NE 10.7 mph 18.4 mph 53% 0 in CLR
15:00 62.1 °F 45.1 °F 30.2 in NE 12 mph 19 mph 54% 0 in CLR
15:05 61.5 °F 44.8 °F 30.2 in North 11.2 mph 13.8 mph 54% 0 in CLR
15:10 62.1 °F 44.8 °F 30.2 in NE 10.7 mph 15 mph 53% 0 in CLR
15:15 62.1 °F 44.8 °F 30.2 in NE 10.7 mph 16.1 mph 53% 0 in CLR
15:20 61.9 °F 44.6 °F 30.2 in ENE 10.2 mph 16.1 mph 53% 0 in CLR
15:25 62.1 °F 44.2 °F 30.2 in NW 10.2 mph 20.7 mph 52% 0 in CLR
15:30 62.1 °F 43.7 °F 30.2 in ENE 9.2 mph 17.3 mph 51% 0 in CLR
15:35 62.1 °F 44.8 °F 30.2 in NE 9.2 mph 18.4 mph 53% 0 in CLR
15:40 62.1 °F 44.2 °F 30.2 in ESE 10.7 mph 12.7 mph 52% 0 in CLR
15:45 61.9 °F 44.6 °F 30.2 in ENE 10.7 mph 17.3 mph 53% 0 in CLR
15:50 61.7 °F 43.9 °F 30.2 in NNE 10 mph 18.4 mph 52% 0 in CLR
15:55 61.9 °F 45 °F 30.2 in SSE 10 mph 17.3 mph 54% 0 in CLR
16:00 61.3 °F 43.5 °F 30.2 in NE 10 mph 21 mph 52% 0 in CLR
16:05 61.5 °F 44.8 °F 30.2 in NE 10.2 mph 20.7 mph 54% 0 in CLR
16:10 61.2 °F 43.3 °F 30.2 in ENE 10.2 mph 17.3 mph 52% 0 in CLR
16:15 61.3 °F 45 °F 30.2 in NE 10.2 mph 17.3 mph 55% 0 in CLR
16:20 61.3 °F 44.4 °F 30.2 in NE 9.7 mph 18.4 mph 54% 0 in CLR
16:25 61.2 °F 44.4 °F 30.2 in NE 9.7 mph 17.3 mph 54% 0 in CLR
16:30 61 °F 44.2 °F 30.2 in East 10.2 mph 13.8 mph 54% 0 in CLR
16:35 61 °F 44.8 °F 30.2 in NE 10.2 mph 15.6 mph 55% 0 in CLR
16:40 60.6 °F 43.9 °F 30.2 in ENE 10 mph 16.1 mph 54% 0 in CLR
16:45 61 °F 44.8 °F 30.2 in East 10 mph 9.7 mph 55% 0 in CLR
16:50 61.3 °F 44.4 °F 30.2 in ENE 8.5 mph 15 mph 54% 0 in CLR
16:55 61 °F 44.2 °F 30.2 in NE 8.5 mph 13.8 mph 54% 0 in CLR
17:00 60.6 °F 43.9 °F 30.2 in NE 10 mph 21 mph 54% 0 in CLR
17:05 60.4 °F 44.2 °F 30.2 in ENE 10.2 mph 13.8 mph 55% 0 in CLR
17:10 60.4 °F 44.2 °F 30.2 in East 9.7 mph 16.1 mph 55% 0 in CLR
17:15 60.6 °F 43.9 °F 30.2 in NE 9.7 mph 18.4 mph 54% 0 in CLR
17:20 60.4 °F 43.7 °F 30.2 in ENE 10 mph 15 mph 54% 0 in CLR
17:25 60.3 °F 43.5 °F 30.2 in ENE 10 mph 13.8 mph 54% 0 in CLR
17:30 60.4 °F 43.7 °F 30.2 in North 10 mph 12.7 mph 54% 0 in CLR
17:35 60.4 °F 43.2 °F 30.2 in NE 10 mph 18.4 mph 53% 0 in CLR
17:40 60.4 °F 43.7 °F 30.2 in ESE 8.1 mph 12.7 mph 54% 0 in CLR
17:45 60.4 °F 43.2 °F 30.2 in ESE 8.1 mph 15.6 mph 53% 0 in CLR
17:50 60.3 °F 42.1 °F 30.2 in NE 8.1 mph 15 mph 51% 0 in CLR
17:55 60.1 °F 41.4 °F 30.2 in ENE 8.1 mph 18.4 mph 50% 0 in CLR
18:00 59.9 °F 41.7 °F 30.2 in NE 10 mph 18 mph 51% 0 in CLR
18:05 60.1 °F 41.9 °F 30.2 in ENE 10.7 mph 15 mph 51% 0 in CLR
18:10 59.9 °F 41.7 °F 30.2 in NE 8.1 mph 13.8 mph 51% 0 in CLR
18:15 59.7 °F 41.5 °F 30.2 in NE 8.1 mph 15 mph 51% 0 in CLR
18:20 59.5 °F 41.4 °F 30.2 in NE 9.2 mph 12.7 mph 51% 0 in CLR
18:25 59.5 °F 41.9 °F 30.2 in NNE 9.2 mph 9.2 mph 52% 0 in CLR
18:30 59.5 °F 42.4 °F 30.2 in NE 7.4 mph 11.5 mph 53% 0 in CLR
18:35 59.5 °F 43.3 °F 30.2 in East 7.4 mph 12.7 mph 55% 0 in CLR
18:40 59.4 °F 43.2 °F 30.2 in NE 7.6 mph 12.7 mph 55% 0 in CLR
18:45 59 °F 43.9 °F 30.2 in ENE 7.6 mph 18.4 mph 57% 0 in CLR
18:50 58.8 °F 43.2 °F 30.2 in ENE 10 mph 12.7 mph 56% 0 in CLR
18:55 58.8 °F 43.5 °F 30.2 in NE 10 mph 13.8 mph 57% 0 in CLR
19:00 58.6 °F 43.9 °F 30.2 in NE 8 mph 13 mph 58% 0 in CLR
19:05 58.5 °F 43.7 °F 30.2 in NE 7.6 mph 8.1 mph 58% 0 in CLR
19:10 58.5 °F 43.7 °F 30.2 in NE 6.9 mph 11.5 mph 58% 0 in CLR
19:15 58.3 °F 43.5 °F 30.2 in ENE 6.9 mph 8.1 mph 58% 0 in CLR
19:20 57.9 °F 43.7 °F 30.2 in ENE 7.4 mph 10.4 mph 59% 0 in CLR
19:25 57.9 °F 43.7 °F 30.2 in ENE 7.4 mph 9.2 mph 59% 0 in CLR
19:30 57.7 °F 43.9 °F 30.2 in NE 6.4 mph 9.2 mph 60% 0 in CLR
19:35 57.6 °F 44.2 °F 30.2 in NNE 6.4 mph 8.1 mph 61% 0 in CLR
19:40 57.4 °F 44.4 °F 30.2 in ENE 5.9 mph 12.7 mph 62% 0 in CLR
19:45 57 °F 44.1 °F 30.2 in NE 5.9 mph 8.1 mph 62% 0 in CLR
19:50 57 °F 44.1 °F 30.2 in NE 5.9 mph 6.9 mph 62% 0 in CLR
19:55 56.8 °F 44.1 °F 30.2 in NE 5.9 mph 6.9 mph 62% 0 in CLR
20:00 56.7 °F 44.2 °F 30.2 in NE 5 mph 7 mph 63% 0 in CLR
20:05 56.5 °F 44.1 °F 30.2 in NNE 4.7 mph 6.9 mph 63% 0 in CLR
20:10 56.3 °F 43.9 °F 30.2 in NNE 4.7 mph 8.1 mph 63% 0 in CLR
20:15 56.1 °F 43.7 °F 30.2 in ENE 4.7 mph 5.8 mph 63% 0 in CLR
20:20 56.1 °F 43.7 °F 30.2 in NE 4.3 mph 5.8 mph 63% 0 in CLR
20:25 55.9 °F 43.9 °F 30.2 in NNE 4.3 mph 5.8 mph 64% 0 in CLR
20:30 55.9 °F 43.9 °F 30.2 in NNE 4 mph 5.8 mph 64% 0 in CLR
20:35 55.8 °F 44.2 °F 30.2 in NE 4 mph 5.8 mph 65% 0 in CLR
20:40 55.8 °F 44.2 °F 30.2 in NNE 4 mph 4.6 mph 65% 0 in CLR
20:45 55.8 °F 44.2 °F 30.2 in NNE 4 mph 5.2 mph 65% 0 in CLR
20:50 55.8 °F 44.2 °F 30.2 in NE 3.1 mph 2.3 mph 65% 0 in CLR
20:55 55.8 °F 44.6 °F 30.2 in NNE 3.1 mph 4.6 mph 66% 0 in CLR
21:00 55.6 °F 44.4 °F 30.2 in NNE 2 mph 5 mph 66% 0 in CLR
21:05 55.2 °F 44.4 °F 30.2 in NNE 2.9 mph 3.1 mph 67% 0 in CLR
21:10 55.2 °F 44.4 °F 30.2 in NE 2 mph 2.3 mph 67% 0 in CLR
21:15 55.2 °F 44.8 °F 30.2 in NE 2 mph 4.6 mph 68% 0 in CLR
21:20 55 °F 45.1 °F 30.2 in NNE 2 mph 4.6 mph 69% 0 in CLR
21:25 55 °F 45.1 °F 30.2 in NNE 2 mph 2.3 mph 69% 0 in CLR
21:30 55 °F 45.1 °F 30.2 in NNE 1.8 mph   69% 0 in CLR
21:35 54.9 °F 45 °F 30.2 in NNE 1.8 mph   69% 0 in CLR
21:40 55 °F 45.3 °F 30.2 in Calm   3.6 mph 70% 0 in CLR
21:45 54.9 °F 45.3 °F 30.2 in Calm   3.5 mph 70% 0 in CLR
21:50 54.9 °F 45 °F 30.2 in NNE 1.8 mph 1.2 mph 69% 0 in CLR
21:55 54.9 °F 45.3 °F 30.2 in NNE 1.8 mph 2.3 mph 70% 0 in CLR
22:00 54.7 °F 45.1 °F 30.2 in NNE 1 mph 5 mph 70% 0 in CLR
22:05 54.5 °F 45 °F 30.2 in NNE 1.4 mph 2.3 mph 70% 0 in CLR
22:10 54.3 °F 45.1 °F 30.2 in NNE 1.4 mph 2.4 mph 71% 0 in CLR
22:15 54.3 °F 45.5 °F 30.2 in NNE 1.4 mph   72% 0 in CLR
22:20 54.3 °F 45.5 °F 30.3 in Calm     72% 0 in CLR
22:25 54.3 °F 45.5 °F 30.3 in Calm   2 mph 72% 0 in CLR
22:30 54.3 °F 45.5 °F 30.3 in Calm   3.5 mph 72% 0 in CLR
22:35 54.1 °F 45.3 °F 30.2 in Calm     72% 0 in CLR
22:40 54.1 °F 45.3 °F 30.2 in NNE 1.4 mph 3.5 mph 72% 0 in CLR
22:45 54 °F 45.5 °F 30.2 in NNE 1.4 mph 2.3 mph 73% 0 in CLR
22:50 54 °F 45.5 °F 30.2 in NNE 1.8 mph 2.4 mph 73% 0 in CLR
22:55 53.8 °F 45.7 °F 30.2 in NW 1.8 mph 4.6 mph 74% 0 in CLR
23:00 53.6 °F 45.5 °F 30.2 in NNW 2 mph 6 mph 74% 0 in CLR
23:05 53.4 °F 45.3 °F 30.2 in NW 2.9 mph 2.3 mph 74% 0 in CLR
23:10 53.2 °F 45.1 °F 30.2 in NW 2 mph 2.3 mph 74% 0 in CLR
23:15 53.1 °F 45.3 °F 30.2 in NW 2 mph 2.3 mph 75% 0 in CLR
23:20 53.1 °F 45.3 °F 30.2 in NW 2 mph 1.2 mph 75% 0 in CLR
23:25 53.1 °F 45.3 °F 30.2 in NW 2 mph   75% 0 in CLR
23:30 52.9 °F 45.1 °F 30.2 in Calm     75% 0 in CLR
23:35 52.9 °F 45.1 °F 30.2 in Calm     75% 0 in CLR
23:40 52.9 °F 45.1 °F 30.2 in Calm     75% 0 in CLR
23:45 52.9 °F 45.5 °F 30.2 in Calm     76% 0 in CLR
23:50 52.9 °F 45.1 °F 30.2 in Calm   3.6 mph 75% 0 in CLR
23:55 52.9 °F 44.8 °F 30.2 in Calm   3.5 mph 74% 0 in CLR
Murcia-Puente Tocinos, España
Compliments of Weather Underground - 2.75 mb

La estación de MeteoMurcia.com, publica sus datos en los siguientes proyectos:

Weather Underground PWS IMURCIAP2 Meteoclimatic www.awekas.at

W3Counter
Web Analytics